Printer-friendly version

IAU Minor Planet Center

Minor Planet Center

MPEC 2000-H27: 2000 GG147

The following Minor Planet Electronic Circular may be linked-to from your own Web pages, but must not otherwise be redistributed electronically.


Read MPEC 2000-H26 Read MPEC 2000-H28


M.P.E.C. 2000-H27                                Issued 2000 Apr. 22, 18:23 UT

     The Minor Planet Electronic Circulars contain information on unusual
         minor planets and routine data on comets.  They are published
   on behalf of Commission 20 of the International Astronomical Union by the
          Minor Planet Center, Smithsonian Astrophysical Observatory,
                          Cambridge, MA 02138, U.S.A.

             Prepared using the Tamkin Foundation Computer Network

             BMARSDEN@CFA.HARVARD.EDU or GWILLIAMS@CFA.HARVARD.EDU
          URL http://cfa-www.harvard.edu/iau/mpc.html  ISSN 1523-6714

                                  2000 GG147

Observations:
     K00GE7G* C2000 04 10.22716 11 26 08.84 +45 04 44.2          18.8 R      699
     K00GE7G  C2000 04 10.24645 11 26 07.27 +45 03 10.2                      699
     K00GE7G  C2000 04 10.26568 11 26 05.72 +45 01 36.3                      699
     K00GE7G  C2000 04 10.28495 11 26 04.06 +45 00 02.9                      699
     K00GE7G  C2000 04 10.84262 11 25 25.42 +44 15 01.1          17.8 R      046
     K00GE7G  C2000 04 10.84749 11 25 25.27 +44 14 35.0                      046
     K00GE7G  C2000 04 10.84862 11 25 25.05 +44 14 29.3                      046
     K00GE7G  C2000 04 10.85060 11 25 24.87 +44 14 20.3          17.9 R      046
     K00GE7G  C2000 04 12.89965 11 23 18.89 +41 29 19.0                      557
     K00GE7G  C2000 04 12.90094 11 23 18.90 +41 29 12.9                      557
     K00GE7G  C2000 04 12.90222 11 23 18.84 +41 29 06.6          19.2 V      557
     K00GE7G  C2000 04 12.90351 11 23 18.82 +41 29 00.5                      557
     K00GE7G  C2000 04 12.90479 11 23 18.65 +41 28 56.2                      557
     K00GE7G  C2000 04 16.86383 11 20 29.46 +36 14 58.6                      046
     K00GE7G  C2000 04 16.86500 11 20 29.46 +36 14 52.1                      046
     K00GE7G  C2000 04 16.86586 11 20 29.43 +36 14 49.9                      046
     K00GE7G  C2000 04 20.83015 11 18 59.20 +31 11 48.5          18.2 R      046
     K00GE7G  C2000 04 20.83674 11 18 59.18 +31 11 19.1                      046
     K00GE7G  C2000 04 20.85837 11 18 58.75 +31 09 41.4                      557
     K00GE7G  C2000 04 20.85966 11 18 58.67 +31 09 35.1                      557
     K00GE7G  C2000 04 20.86097 11 18 58.65 +31 09 29.7                      557
     K00GE7G 1C2000 04 21.21234 11 18 54.16 +30 43 22.3                      658
     K00GE7G 1C2000 04 21.21463 11 18 54.09 +30 43 12.8                      658
     K00GE7G 1C2000 04 21.21858 11 18 53.95 +30 42 52.7                      658

Observer details:
046 Klet.  Observers J. Ticha, M. Tichy, Z. Moravec.  0.57-m f/5.2 reflector
    + CCD.
557 Ondrejov.  Observers L. Sarounova, P. Kusnirak.  0.65-m f/3.6 reflector
    + CCD.
658 Dominion Astrophysical Observatory.  Observer D. D. Balam.  1.82-m
    reflector + CCD.
699 Lowell Observatory-LONEOS.  Observer W. D. Ferris.  Measurer B. W. Koehn.
    0.59-m LONEOS Schmidt + CCD.

Orbital elements:
2000 GG147
Epoch 2000 Apr. 6.0 TT = JDT 2451640.5                  Williams
M  24.16402              (2000.0)            P               Q
n   0.41163274     Peri.   99.90682     -0.60239988     -0.75763315
a   1.7897654      Node    31.79087     +0.40524171     -0.56144028
e   0.3558991      Incl.   28.47932     +0.68767256     -0.33283152
P   2.39           H   18.6           G   0.15
From 24 observations 2000 Apr. 10-21.

Ephemeris:
2000 GG147               a,e,i = 1.79, 0.36, 28                  q = 1.1528
Date    TT    R. A. (2000) Decl.     Delta      r     Elong.  Phase     V
2000 04 16    11 20.98   +37 22.8    0.467    1.316   122.7    39.9    19.1
2000 04 21    11 18.95   +30 59.3    0.491    1.337   122.9    39.1    19.2
2000 04 26    11 18.60   +25 00.9    0.522    1.359   122.2    38.8    19.4
2000 05 01    11 19.59   +19 32.6    0.559    1.381   121.0    38.7    19.6
2000 05 06    11 21.66   +14 36.0    0.602    1.404   119.2    38.8    19.8
2000 05 11    11 24.64   +10 09.9    0.649    1.428   117.1    39.0    20.0
2000 05 16    11 28.37   +06 12.0    0.700    1.451   114.8    39.2    20.2
2000 05 21    11 32.73   +02 39.3    0.754    1.475   112.4    39.4    20.4
2000 05 26    11 37.62   -00 31.5    0.812    1.500   110.0    39.4    20.6
2000 05 31    11 43.00   -03 23.5    0.873    1.524   107.5    39.4    20.8
2000 06 05    11 48.80   -05 59.4    0.935    1.548   105.1    39.3    21.0
2000 06 10    11 54.99   -08 21.6    1.000    1.573   102.6    39.0    21.1
2000 06 15    12 01.53   -10 32.3    1.065    1.597   100.2    38.7    21.3
2000 06 20    12 08.37   -12 33.0    1.133    1.622    97.8    38.4    21.5
2000 06 25    12 15.51   -14 25.3    1.201    1.646    95.5    37.9    21.6
2000 06 30    12 22.92   -16 10.3    1.270    1.670    93.2    37.4    21.7
2000 07 05    12 30.59   -17 49.0    1.340    1.694    90.8    36.9    21.9

Gareth V. Williams           (C) Copyright 2000 MPC           M.P.E.C. 2000-H27

Read MPEC 2000-H26 Read MPEC 2000-H28


Our Web policy. Index to the CBAT/MPC/ICQ pages.


Valid HTML 4.01!